Find Starlink 30944

NORAD ID: 58451 Int'l Des: 2023-183 Owner: SPXS Country: US Constellation: starlink operational
LEOCIRCULAR

Live-Position

3D-Globus wird geladen...

Über Starlink 30944

Beschreibung wird geladen...

Nächste Überflüge

Passes for default location (London). Set your location on the main map for personalized predictions.

Höhenverlauf

Loading altitude history...

Zweizeiliger Elementsatz

1 58451U 23183Q 26126.21495782 .00000377 00000-0 23204-4 0 9997
2 58451 42.9999 76.6128 0001137 262.0409 98.0314 15.27587712135506
Epoch: 6. Mai 2026 • Age: 7 hours

Aktueller Status

Höhe 486.8 km
Geschwindigkeit 7.63 km/s
Subsatellitenpunkt 42.60°N, 134.02°E
Startdatum 28. Nov. 2023
Alter 2.4 years
Typ internet

Technische Details

Klassifizierung Payload
Masse 730.00 kg
Trockenmasse 700.00 kg
Gesamtmasse 730.00 kg
Länge 0.30 m
Durchmesser 4.10 m
Spannweite 29.00 m
Form Box + pan
Hersteller SPXS
Bus-Typ Starlink V2M
Phasenstatus In Orbit
Besitzer/Staat SPXS/US

Most Searched